Regional Weather Roundup
Issued by NWS Mobile, AL

Home | Current Version | Previous Version | Text Only | Print | Product List | Glossary On
Versions: 1 2 3 4 5 6 7 8 9 10 11 12 13 14 15 16 17 18 19 20 21 22 23 24 25 26 27 28 29 30 31 32 33 34 35 36 37 38 39 40 41 42 43 44 45 46 47 48 49 50
000
ASUS44 KMOB 050016
RWRMOB
REGIONAL WEATHER ROUNDUP
NATIONAL WEATHER SERVICE MOBILE AL
700 PM CDT FRI SEP 04 2015

ALZ061>064-050100-
COASTAL ALABAMA


CITY           SKY/WX    TMP DP  RH WIND       PRES   REMARKS
MOBILE REG APT FAIR      83  75  77 SW7       29.96F
6HR MIN TEMP:  81; 6HR MAX TEMP:  93;

BROOKLEY FIELD FAIR      85  74  69 SW7       29.96S
6HR MIN TEMP:  85; 6HR MAX TEMP:  92;

GULF SHORES    FAIR      83  75  78 W8        29.96S
6HR MIN TEMP:  83; 6HR MAX TEMP:  88; 6HR PCP:  0.01;


$$

ALZ051>060-050100-
INTERIOR SOUTHWEST AND SOUTH CENTRAL ALABAMA


CITY           SKY/WX    TMP DP  RH WIND       PRES   REMARKS
ANDALUSIA/OPP  FAIR      87  76  69 CALM      29.95R HX  97
6HR MIN TEMP:  85; 6HR MAX TEMP:  98; 6HR PCP:  0.01;

EVERGREEN      FAIR      81  78  91 CALM      29.95S
6HR MIN TEMP:  78; 6HR MAX TEMP:  95; 6HR PCP:  0.27;

FLORALA        FAIR      83  74  74 CALM      29.98R
6HR MIN TEMP:  83; 6HR MAX TEMP:  93;

GREENVILLE     MOCLDY    85  71  63 VRB3      29.96R
6HR MIN TEMP:  85; 6HR MAX TEMP:  95;


$$

FLZ001>006-050100-
WESTERN FLORIDA PANHANDLE


CITY           SKY/WX    TMP DP  RH WIND       PRES   REMARKS
CRESTVIEW      FAIR      85  73  67 S3        29.96S
6HR MIN TEMP:  85; 6HR MAX TEMP:  94;

DESTIN         FAIR      85  75  72 SW6       29.95R
6HR MIN TEMP:  85; 6HR MAX TEMP:  90;

DUKE FIELD     FAIR      85  71  63 S7        29.95R
6HR MIN TEMP:  83; 6HR MAX TEMP:  94;

MARY ESTHER    FAIR      83  74  72 SW7       29.94S
6HR MIN TEMP:  83; 6HR MAX TEMP:  90; 6HR PCP: TRACE;

MILTON         FAIR      85  71  63 S7        29.95R
6HR MIN TEMP:  85; 6HR MAX TEMP:  96;

PENSACOLA      FAIR      84  72  67 SW12      29.95R
6HR MIN TEMP:  84; 6HR MAX TEMP:  91;

NAS PENSACOLA  PTCLDY    83  74  74 W5        29.95R
6HR MIN TEMP:  83; 6HR MAX TEMP:  89;

VALPARAISO     PTCLDY    85  73  68 SW8       29.95S
6HR MIN TEMP:  85; 6HR MAX TEMP:  91;


$$

...MARINE OBSERVATIONS...

STATION/POSITION TIME  SKY/WX   TEMP    WIND        PRES    VSBY
                                AIR SEA DIR/SP/G
                 (UTC)          (F)     (DEG/KT/KT) (MB)    (MI)
PASCAGOULA       2300            86     230/  8/ 10 1014.4F
GRAND BAY        2245            85     220/ 11     1016.0
PETIT BOIS ISL   2300            85     220/ 12/ 14 1015.2S
E DAUPHIN ISLAND 0000            84     260/  5/  8 1014.0F
MIDDLE BAY LIGHT 2300            85     220/ 15     1013.5S
USCG MOBILE BAY  2300            89 86  230/  4/  9 1013.2R
STATE DOCKS      2300            89 86              1013.7S
MEAHER PARK      0000            85     240/ 11     1013.2S
FORT MORGAN      2300            84     240/ 13/ 15 1014.1R
12 S ORANGE BCH  2350            84 87  250/ 10/ 12 1013.8F
WVE H/P(F/S)=  1/ 4

PENSACOLA BAY    2300            87 86  210/  6/  8 1014.5R
64 S DAUPHIN ISL 2350            83 86  270/  6/  8 1014.6F
WVE H/P(F/S)=  1/ 6

115 SE PENSACOLA 2350            81 85  270/  6/  6 1014.8S
WVE H/P(F/S)=  2/ 4

MID GULF/42001   0000            85 87  110/ 10/ 12 1015.0R
EAST GULF/42003  2350            83 87   40/  6/  8 1014.5R
WVE H/P(F/S)=  1/ 5


$$

...NEARBY LOCATIONS

CITY           SKY/WX    TMP DP  RH WIND       PRES   REMARKS
GULFPORT       FAIR      84  75  74 S8        29.94F
6HR MIN TEMP:  84; 6HR MAX TEMP:  90;

BILOXI         FAIR      83  76  77 SW7       29.94F
6HR MIN TEMP:  83; 6HR MAX TEMP:  91;

PASCAGOULA     FAIR      83  76  79 SW5       29.95F
6HR MIN TEMP:  83; 6HR MAX TEMP:  90; 6HR PCP: TRACE;

HATTIESBURG    FAIR      90  68  48 SE3       29.94S
6HR MIN TEMP:  90; 6HR MAX TEMP:  97;

LAUREL         FAIR      90 N/A N/A S6        29.96S
MERIDIAN       FAIR      85  76  74 CALM      29.95S
6HR MIN TEMP:  83; 6HR MAX TEMP:  94; 6HR PCP:  0.09;

MERIDIAN NAS   FAIR      85  73  67 W5        29.95R
6HR MIN TEMP:  85; 6HR MAX TEMP:  96;

MONTGOMERY     FAIR      88  72  58 NW3       29.95R
6HR MIN TEMP:  85; 6HR MAX TEMP:  96; 6HR PCP: TRACE;

MAXWELL AFB    FAIR      84  77  80 CALM      29.94S
6HR MIN TEMP:  83; 6HR MAX TEMP:  93; 6HR PCP: TRACE;

TROY           MOCLDY    81  75  82 CALM      29.96S
6HR MIN TEMP:  81; 6HR MAX TEMP:  94; 6HR PCP:  0.01;

FORT RUCKER    FAIR      83  73  72 W5        29.95R
6HR MIN TEMP:  79; 6HR MAX TEMP:  94; 6HR PCP:  0.17;

DALEVILLE      MOCLDY    83  74  74 CALM      29.96R
6HR MIN TEMP:  80; 6HR MAX TEMP:  91; 6HR PCP:  0.43;

DOTHAN         MOCLDY    84  70  62 W6        29.99R
6HR MIN TEMP:  82; 6HR MAX TEMP:  94; 6HR PCP:  0.14;


$$

...OTHER SURROUNDING LOCATIONS...

CITY           SKY/WX    TMP DP  RH WIND       PRES   REMARKS
BIRMINGHAM     MOCLDY    85  74  69 N3        30.00R
6HR MIN TEMP:  85; 6HR MAX TEMP:  92;

TUSCALOOSA     FAIR      87  71  58 NE5       29.95R
6HR MIN TEMP:  87; 6HR MAX TEMP:  95;

COLUMBUS GA    FAIR      89  68  49 NE3       29.94R
6HR MIN TEMP:  89; 6HR MAX TEMP:  95;

PANAMA CITY    NOT AVBL
TALLAHASSEE    MOCLDY    83  73  72 SW9       29.95F
6HR MIN TEMP:  83; 6HR MAX TEMP:  95;

BATON ROUGE    FAIR      83  73  72 SW8       29.96R
6HR MIN TEMP:  83; 6HR MAX TEMP:  94;

NEW ORLEANS    MOCLDY    81  72  74 S7        29.96S
6HR MIN TEMP:  78; 6HR MAX TEMP:  89; 6HR PCP: TRACE;

SLIDELL        FAIR      84  74  71 VRB3      29.95S
6HR MIN TEMP:  84; 6HR MAX TEMP:  91; 6HR PCP: TRACE;

JACKSON        MOCLDY    92  68  45 E5        29.94R HX  96
6HR MIN TEMP:  92; 6HR MAX TEMP:  97;

MCCOMB         FAIR      80  74  81 S5        29.96S
6HR MIN TEMP:  80; 6HR MAX TEMP:  96;


$$

...SURROUNDING MARINE OBSERVATIONS...

STATION/POSITION TIME  SKY/WX   TEMP    WIND        PRES    VSBY
                                AIR SEA DIR/SP/G
                 (UTC)          (F)     (DEG/KT/KT) (MB)    (MI)
WAVELAND         2300            85 88  210/ 10/ 14 1014.6F
PASCAGOULA RGN A 2300            86     230/ 11/ 15 1014.1F
PASCAGOULA PORT  2300               86                N/A
GRAND ISLE       2300            83 86   70/  1/  4 1015.3S
SOUTHWEST PASS   0000                                 N/A
PILOT STATION E  2300            86 86  290/  7/ 10 1015.5F
SHELL BEACH      2300            85 86  260/  4/  6 1014.1F
PANAMA CITY      2300            84 87  250/ 10/ 12 1013.9R
APALACHICOLA     2300            86 87  280/  5/  9 1014.5R
TYNDALL TOWER C  0000            83     290/ 12/ 13 1014.4F
S APLCHCLA/42036 2350            85 86  340/  6/  8 1014.4F
WVE H/P(F/S)=  1/ 3


$$




USA.gov is the U.S. government's official web portal to all federal, state and local government web resources and services.